MDT,Max TemperatureF,Mean TemperatureF,Min TemperatureF,Max Dew PointF,MeanDew PointF,Min DewpointF,Max Humidity, Mean Humidity, Min Humidity, Max Sea Level PressureIn, Mean Sea Level PressureIn, Min Sea Level PressureIn, Max VisibilityMiles, Mean VisibilityMiles, Min VisibilityMiles, Max Wind SpeedMPH, Mean Wind SpeedMPH, Max Gust SpeedMPH,PrecipitationIn, CloudCover, Events, WindDirDegrees
2012-9-1,62,56,51,45,35,30,67,48,34,30.69,30.66,30.63,10,10,7,36,17,47,0.02,3,Rain-Thunderstorm,188
2012-9-2,60,52,44,43,37,32,81,58,34,30.69,30.66,30.62,10,10,10,28,12,32,0.01,4,Rain,235
2012-9-3,60,53,46,37,34,28,71,51,29,30.69,30.66,30.62,10,10,5,29,14,39,0.00,3,Rain-Thunderstorm,258
2012-9-4,62,54,46,32,21,10,44,29,15,30.67,30.63,30.60,10,10,10,30,15,39,0.00,3,,258
2012-9-5,60,53,46,18,8,-2,25,17,8,30.64,30.61,30.58,10,10,10,25,14,31,0.00,0,,257
2012-9-6,60,52,44,23,13,1,30,20,14,30.62,30.59,30.56,10,10,10,23,14,31,0.00,4,,254
2012-9-7,53,47,41,41,33,23,87,61,35,30.71,30.62,30.52,10,9,0,29,16,47,0.14,6,Rain,266
2012-9-8,66,52,39,32,20,-4,70,35,7,30.73,30.70,30.68,10,10,10,26,7,24,0.00,0,,239
2012-9-9,68,56,44,30,21,-4,57,32,6,30.72,30.66,30.60,10,10,10,24,16,28,0.00,0,,227
2012-9-10,60,53,46,32,27,19,57,38,22,30.63,30.58,30.52,10,10,10,23,14,29,0.00,2,,262
2012-9-11,59,50,41,41,34,27,87,56,35,30.53,30.49,30.45,10,8,0,24,12,28,0.26,8,Rain-Thunderstorm,222
2012-9-12,46,42,37,41,35,28,87,77,61,30.64,30.53,30.45,10,6,0,20,9,26,0.30,6,Fog-Rain-Snow-Thunderstorm,265
2012-9-13,59,48,37,30,22,12,75,44,23,30.80,30.73,30.64,10,10,10,16,8,23,0.00,0,,283
2012-9-14,60,50,41,28,16,7,57,27,12,30.80,30.76,30.72,10,10,10,17,7,22,0.00,0,,265
2012-9-15,60,52,44,18,10,0,32,20,9,30.73,30.69,30.64,10,10,10,24,12,30,0.00,0,,267
2012-9-16,59,50,42,12,5,-8,25,16,10,30.64,30.58,30.51,10,10,10,28,16,39,0.00,1,,267
2012-9-17,46,40,35,34,25,10,87,55,23,30.52,30.48,30.44,10,9,0,28,13,41,0.16,5,Snow-Thunderstorm,267
2012-9-18,53,45,37,23,18,14,56,35,21,30.61,30.57,30.51,10,10,10,28,19,36,0.00,0,,269
2012-9-19,59,50,41,19,14,7,39,26,14,30.64,30.62,30.59,10,10,10,24,16,32,0.00,0,,271
2012-9-20,59,50,42,16,11,5,31,22,13,30.62,30.60,30.58,10,10,10,21,11,28,0.00,1,,267
2012-9-21,59,52,44,19,13,1,34,23,10,30.64,30.62,30.59,10,10,10,22,12,32,0.00,0,,261
2012-9-22,59,52,44,21,14,5,39,24,12,30.68,30.65,30.62,10,10,10,23,15,33,0.00,0,,243
2012-9-23,59,52,44,27,17,9,46,29,18,30.67,30.64,30.60,10,10,10,23,14,34,0.00,3,,251
2012-9-24,51,44,37,34,31,27,87,66,46,30.60,30.50,30.41,10,8,0,22,13,31,0.00,4,Rain-Snow-Thunderstorm,236
2012-9-25,50,42,35,36,32,28,87,78,50,30.40,30.34,30.30,10,7,0,23,9,18,0.01,7,Fog-Rain-Snow-Thunderstorm,224
2012-9-26,50,42,33,34,29,21,93,70,39,30.45,30.38,30.31,10,8,0,17,9,22,0.04,5,Fog-Snow-Thunderstorm,183
2012-9-27,44,38,33,34,31,27,93,76,57,30.53,30.47,30.42,10,8,0,24,15,30,0.05,7,Snow-Thunderstorm,239
2012-9-28,53,44,35,32,29,21,87,60,34,30.52,30.50,30.48,10,10,10,17,8,,0.00,3,Thunderstorm,237
2012-9-29,53,45,37,32,26,16,70,50,22,30.57,30.53,30.50,10,10,10,23,13,29,0.00,3,Thunderstorm,260
2012-9-30,48,42,37,30,27,21,75,59,34,30.59,30.55,30.51,10,10,10,26,17,37,0.00,6,,273